NDF6PC LOWI-EDDK

Flight info

Callsign NDF6PC
Flight time 1h 7m
Altitude 32000
Route MOGTI1X MOGTI P66 KPT L608 KOVAN T844 UMDAS/N0399F240 T844 ASKIK T840 GULKO GULKO1C
Aircraft A320/M-SDE3FGHIRWY/LB1

Departure

Time 2026-04-25 07:17
Airport Innsbruck Airport (LOWI)

Arrival

Time 2026-04-25 08:24
Airport Cologne Bonn Airport (EDDK)
Time Latitude Longitude Altitude Speed Heading
2026-04-25 06:48 47.25832 11.35169 1898 ft 0 kts 171°
2026-04-25 07:09 47.25837 11.35168 1892 ft 4 kts 171°
2026-04-25 07:09 47.25863 11.35162 1902 ft 2 kts 171°
2026-04-25 07:10 47.25882 11.35156 1892 ft 4 kts 139°
2026-04-25 07:10 47.25887 11.35133 1899 ft 4 kts 82°
2026-04-25 07:10 47.25885 11.35119 1899 ft 0 kts 81°
2026-04-25 07:13 47.25886 11.35126 1899 ft 2 kts 81°
2026-04-25 07:13 47.25891 11.35176 1903 ft 10 kts 81°
2026-04-25 07:14 47.25903 11.35265 1907 ft 6 kts 67°
2026-04-25 07:14 47.25933 11.35289 1901 ft 7 kts 356°
2026-04-25 07:14 47.25983 11.35275 1902 ft 7 kts 350°
2026-04-25 07:14 47.26023 11.35265 1898 ft 5 kts 350°
2026-04-25 07:15 47.26093 11.35257 1907 ft 13 kts
2026-04-25 07:15 47.26128 11.35382 1900 ft 19 kts 81°
2026-04-25 07:15 47.26111 11.35582 1906 ft 20 kts 106°
2026-04-25 07:15 47.26138 11.35733 1896 ft 13 kts 12°
2026-04-25 07:16 47.26155 11.35636 1903 ft 11 kts 261°
2026-04-25 07:16 47.26137 11.35471 1896 ft 36 kts 261°
2026-04-25 07:16 47.26054 11.34709 1906 ft 111 kts 261°
2026-04-25 07:16 47.25906 11.33297 1935 ft 164 kts 262°
2026-04-25 07:17 47.25747 11.31599 2589 ft 167 kts 262°
2026-04-25 07:17 47.25585 11.29928 3468 ft 165 kts 261°
2026-04-25 07:17 47.25404 11.28229 3959 ft 176 kts 261°
2026-04-25 07:17 47.25283 11.26316 4183 ft 199 kts 277°
2026-04-25 07:18 47.25746 11.24318 4484 ft 216 kts 295°
2026-04-25 07:18 47.26445 11.22202 4750 ft 243 kts 296°
2026-04-25 07:18 47.27214 11.19869 5252 ft 263 kts 295°
2026-04-25 07:18 47.28008 11.17369 6058 ft 271 kts 294°
2026-04-25 07:19 47.28773 11.14843 7000 ft 272 kts 293°
2026-04-25 07:19 47.29522 11.12286 7935 ft 271 kts 292°
2026-04-25 07:19 47.30218 11.09716 8853 ft 272 kts 287°
2026-04-25 07:19 47.30564 11.06939 9580 ft 279 kts 272°
2026-04-25 07:20 47.30466 11.04074 10377 ft 282 kts 266°
2026-04-25 07:20 47.30313 11.01084 10715 ft 302 kts 266°
2026-04-25 07:20 47.30150 10.97949 11064 ft 320 kts 266°
2026-04-25 07:20 47.29998 10.94587 11446 ft 334 kts 267°
2026-04-25 07:21 47.29870 10.91157 12135 ft 338 kts 268°
2026-04-25 07:21 47.30001 10.87678 12822 ft 342 kts 281°
2026-04-25 07:21 47.30707 10.84315 13533 ft 345 kts 294°
2026-04-25 07:21 47.31933 10.81257 14179 ft 349 kts 307°
2026-04-25 07:22 47.33632 10.78660 14785 ft 355 kts 317°
2026-04-25 07:22 47.35474 10.76224 15419 ft 358 kts 317°
2026-04-25 07:22 47.37342 10.73755 16034 ft 362 kts 316°
2026-04-25 07:22 47.39243 10.71351 16612 ft 367 kts 322°
2026-04-25 07:23 47.41347 10.69187 17137 ft 371 kts 323°
2026-04-25 07:23 47.43485 10.67012 17709 ft 375 kts 323°
2026-04-25 07:23 47.45644 10.64818 18302 ft 379 kts 323°
2026-04-25 07:23 47.47827 10.62598 18815 ft 382 kts 323°
2026-04-25 07:24 47.50024 10.60359 19336 ft 386 kts 323°
2026-04-25 07:24 47.52239 10.58092 19870 ft 389 kts 323°
2026-04-25 07:24 47.54473 10.55807 20403 ft 392 kts 323°
2026-04-25 07:24 47.56722 10.53502 20914 ft 395 kts 323°
2026-04-25 07:25 47.58988 10.51167 21407 ft 398 kts 323°
2026-04-25 07:25 47.61269 10.48807 21894 ft 402 kts 323°
2026-04-25 07:25 47.63569 10.46421 22374 ft 405 kts 323°
2026-04-25 07:25 47.65894 10.44008 22842 ft 409 kts 323°
2026-04-25 07:26 47.68233 10.41582 23300 ft 412 kts 323°
2026-04-25 07:26 47.70563 10.39163 23742 ft 415 kts 323°
2026-04-25 07:26 47.72968 10.36663 24132 ft 418 kts 322°
2026-04-25 07:26 47.75341 10.34154 24523 ft 419 kts 321°
2026-04-25 07:27 47.77627 10.31543 24934 ft 420 kts 319°
2026-04-25 07:27 47.79894 10.28791 25332 ft 421 kts 317°
2026-04-25 07:27 47.82136 10.25980 25730 ft 422 kts 317°
2026-04-25 07:27 47.84385 10.23142 26101 ft 424 kts 317°
2026-04-25 07:28 47.86650 10.20306 26463 ft 426 kts 317°
2026-04-25 07:28 47.88937 10.17472 26812 ft 428 kts 317°
2026-04-25 07:28 47.91247 10.14635 27154 ft 431 kts 317°
2026-04-25 07:28 47.93541 10.11828 27485 ft 433 kts 317°
2026-04-25 07:29 47.95870 10.08982 27818 ft 435 kts 317°
2026-04-25 07:29 47.98214 10.06117 28142 ft 436 kts 317°
2026-04-25 07:29 48.00572 10.03229 28473 ft 438 kts 317°
2026-04-25 07:29 48.02929 10.00335 28813 ft 439 kts 317°
2026-04-25 07:30 48.05285 9.97432 29128 ft 440 kts 317°
2026-04-25 07:30 48.07652 9.94500 29428 ft 442 kts 316°
2026-04-25 07:30 48.10028 9.91554 29720 ft 443 kts 316°
2026-04-25 07:30 48.12410 9.88600 29992 ft 445 kts 316°
2026-04-25 07:31 48.14796 9.85641 30251 ft 447 kts 316°
2026-04-25 07:31 48.17204 9.82653 30445 ft 449 kts 316°
2026-04-25 07:31 48.19613 9.79657 30654 ft 451 kts 316°
2026-04-25 07:31 48.21997 9.76693 30853 ft 452 kts 316°
2026-04-25 07:32 48.24418 9.73687 31122 ft 451 kts 317°
2026-04-25 07:32 48.26823 9.70699 31468 ft 448 kts 317°
2026-04-25 07:32 48.29224 9.67707 31790 ft 446 kts 317°
2026-04-25 07:32 48.31611 9.64723 32059 ft 446 kts 317°
2026-04-25 07:33 48.36310 9.58830 32126 ft 434 kts 316°
2026-04-25 07:33 48.40887 9.52963 32116 ft 432 kts 316°
2026-04-25 07:34 48.45446 9.47076 32107 ft 432 kts 316°
2026-04-25 07:34 48.50016 9.41188 32107 ft 432 kts 316°
2026-04-25 07:35 48.54594 9.35301 32133 ft 432 kts 316°
2026-04-25 07:35 48.59139 9.29439 32136 ft 432 kts 316°
2026-04-25 07:36 48.64151 9.24393 32126 ft 438 kts 333°
2026-04-25 07:36 48.69746 9.20712 32125 ft 438 kts 333°
2026-04-25 07:37 48.75342 9.17018 32151 ft 438 kts 334°
2026-04-25 07:37 48.80917 9.13321 32136 ft 437 kts 334°
2026-04-25 07:38 48.86481 9.09604 32133 ft 436 kts 334°
2026-04-25 07:38 48.92200 9.06423 32127 ft 438 kts 339°
2026-04-25 07:39 48.97944 9.03544 32138 ft 436 kts 339°
2026-04-25 07:39 49.03704 9.00655 32142 ft 435 kts 339°
2026-04-25 07:40 49.09441 8.97762 32140 ft 434 kts 339°
2026-04-25 07:40 49.15166 8.94863 32137 ft 433 kts 339°
2026-04-25 07:41 49.20886 8.91965 32149 ft 432 kts 339°
2026-04-25 07:41 49.26590 8.89064 32155 ft 431 kts 339°
2026-04-25 07:42 49.32271 8.86166 32175 ft 430 kts 339°
2026-04-25 07:42 49.37913 8.83284 32168 ft 429 kts 339°
2026-04-25 07:43 49.43601 8.80516 31943 ft 428 kts 341°
2026-04-25 07:43 49.46468 8.79259 31687 ft 427 kts 341°
2026-04-25 07:43 49.49326 8.78056 31435 ft 426 kts 342°
2026-04-25 07:44 49.52183 8.76862 31184 ft 425 kts 341°
2026-04-25 07:44 49.55028 8.75660 30935 ft 423 kts 341°
2026-04-25 07:44 49.57862 8.74441 30690 ft 422 kts 341°
2026-04-25 07:44 49.60686 8.73207 30444 ft 421 kts 341°
2026-04-25 07:45 49.63498 8.71964 30198 ft 420 kts 341°
2026-04-25 07:45 49.66305 8.70719 29928 ft 418 kts 340°
2026-04-25 07:45 49.69090 8.69483 29647 ft 416 kts 340°
2026-04-25 07:45 49.71869 8.68250 29366 ft 415 kts 340°
2026-04-25 07:46 49.74603 8.67038 29095 ft 413 kts 340°
2026-04-25 07:46 49.77367 8.65818 28819 ft 412 kts 340°
2026-04-25 07:46 49.80126 8.64597 28544 ft 411 kts 340°
2026-04-25 07:46 49.82871 8.63376 28273 ft 409 kts 340°
2026-04-25 07:47 49.84683 8.62567 28103 ft 409 kts 340°
2026-04-25 07:47 49.87412 8.61350 27829 ft 407 kts 340°
2026-04-25 07:47 49.90139 8.60135 27587 ft 405 kts 339°
2026-04-25 07:47 49.92839 8.58929 27339 ft 404 kts 339°
2026-04-25 07:48 49.95536 8.57725 27079 ft 402 kts 339°
2026-04-25 07:48 49.98222 8.56526 26817 ft 401 kts 339°
2026-04-25 07:48 50.00902 8.55330 26565 ft 400 kts 339°
2026-04-25 07:48 50.03567 8.54134 26420 ft 396 kts 339°
2026-04-25 07:49 50.06232 8.52931 26452 ft 401 kts 339°
2026-04-25 07:49 50.08893 8.51730 26062 ft 397 kts 339°
2026-04-25 07:49 50.11524 8.50494 25798 ft 394 kts 336°
2026-04-25 07:49 50.14101 8.49050 25566 ft 391 kts 334°
2026-04-25 07:50 50.16632 8.47527 25331 ft 390 kts 333°
2026-04-25 07:50 50.19163 8.46003 25080 ft 389 kts 334°
2026-04-25 07:50 50.21668 8.44540 24838 ft 389 kts 334°
2026-04-25 07:50 50.24207 8.43114 24607 ft 388 kts 335°
2026-04-25 07:51 50.26756 8.41726 24372 ft 387 kts 335°
2026-04-25 07:51 50.29239 8.40168 24181 ft 382 kts 328°
2026-04-25 07:51 50.31517 8.38098 24155 ft 378 kts 322°
2026-04-25 07:51 50.33738 8.35890 24164 ft 378 kts 322°
2026-04-25 07:52 50.35957 8.33682 24180 ft 378 kts 322°
2026-04-25 07:52 50.38173 8.31474 24163 ft 376 kts 323°
2026-04-25 07:52 50.40383 8.29272 24160 ft 375 kts 322°
2026-04-25 07:52 50.42588 8.27072 24161 ft 375 kts 322°
2026-04-25 07:53 50.44787 8.24874 24160 ft 375 kts 322°
2026-04-25 07:53 50.46985 8.22669 24159 ft 375 kts 323°
2026-04-25 07:53 50.49190 8.20456 24057 ft 376 kts 322°
2026-04-25 07:53 50.51382 8.18259 23797 ft 370 kts 322°
2026-04-25 07:54 50.53515 8.16120 23316 ft 367 kts 322°
2026-04-25 07:54 50.55657 8.13965 22867 ft 363 kts 323°
2026-04-25 07:54 50.57768 8.11831 22424 ft 359 kts 323°
2026-04-25 07:54 50.59860 8.09714 21995 ft 355 kts 323°
2026-04-25 07:55 50.61933 8.07617 21539 ft 353 kts 324°
2026-04-25 07:55 50.63992 8.05534 21052 ft 350 kts 324°
2026-04-25 07:55 50.66033 8.03464 20604 ft 347 kts 324°
2026-04-25 07:55 50.68057 8.01404 20143 ft 345 kts 324°
2026-04-25 07:56 50.70045 7.99378 19697 ft 344 kts 324°
2026-04-25 07:56 50.72055 7.97330 19220 ft 342 kts 325°
2026-04-25 07:56 50.74034 7.95255 18768 ft 340 kts 321°
2026-04-25 07:56 50.75764 7.92725 18302 ft 338 kts 310°
2026-04-25 07:57 50.77134 7.89729 17811 ft 336 kts 302°
2026-04-25 07:57 50.78385 7.86642 17371 ft 333 kts 302°
2026-04-25 07:57 50.79637 7.83562 16940 ft 331 kts 302°
2026-04-25 07:57 50.80883 7.80495 16505 ft 330 kts 302°
2026-04-25 07:58 50.82115 7.77453 16068 ft 328 kts 302°
2026-04-25 07:58 50.83344 7.74418 15638 ft 327 kts 302°
2026-04-25 07:58 50.84569 7.71401 15214 ft 326 kts 302°
2026-04-25 07:58 50.85792 7.68385 14791 ft 325 kts 302°
2026-04-25 07:59 50.86992 7.65420 14361 ft 324 kts 302°
2026-04-25 07:59 50.88204 7.62421 13928 ft 323 kts 302°
2026-04-25 07:59 50.89413 7.59422 13452 ft 322 kts 302°
2026-04-25 07:59 50.90609 7.56440 13011 ft 319 kts 302°
2026-04-25 08:00 50.91796 7.53477 12578 ft 317 kts 302°
2026-04-25 08:00 50.92972 7.50541 12137 ft 314 kts 302°
2026-04-25 08:00 50.94144 7.47626 11717 ft 312 kts 302°
2026-04-25 08:00 50.95309 7.44726 11287 ft 311 kts 302°
2026-04-25 08:01 50.96465 7.41844 10822 ft 309 kts 302°
2026-04-25 08:01 50.97614 7.38982 10503 ft 304 kts 302°
2026-04-25 08:01 50.98732 7.36188 10382 ft 292 kts 302°
2026-04-25 08:01 50.99782 7.33553 10246 ft 282 kts 302°
2026-04-25 08:02 51.00821 7.30945 10047 ft 276 kts 302°
2026-04-25 08:02 51.01850 7.28364 9683 ft 277 kts 302°
2026-04-25 08:02 51.02877 7.25776 9240 ft 277 kts 302°
2026-04-25 08:02 51.03902 7.23186 8790 ft 277 kts 302°
2026-04-25 08:03 51.04920 7.20614 8384 ft 275 kts 302°
2026-04-25 08:03 51.05941 7.18039 7998 ft 273 kts 302°
2026-04-25 08:03 51.06947 7.15468 7588 ft 272 kts 299°
2026-04-25 08:03 51.07631 7.12657 7118 ft 274 kts 282°
2026-04-25 08:04 51.07771 7.09659 6778 ft 272 kts 268°
2026-04-25 08:04 51.07655 7.06655 6340 ft 272 kts 268°
2026-04-25 08:04 51.07543 7.03672 5986 ft 268 kts 268°
2026-04-25 08:04 51.07436 7.00763 5810 ft 257 kts 268°
2026-04-25 08:05 51.07334 6.97997 5689 ft 245 kts 268°
2026-04-25 08:05 51.07148 6.95349 5459 ft 238 kts 252°
2026-04-25 08:05 51.06195 6.93340 5406 ft 235 kts 212°
2026-04-25 08:05 51.04662 6.92779 5350 ft 224 kts 169°
2026-04-25 08:06 51.03366 6.93917 5290 ft 213 kts 126°
2026-04-25 08:06 51.02553 6.95888 5073 ft 217 kts 126°
2026-04-25 08:06 51.01294 6.97227 4444 ft 225 kts 169°
2026-04-25 08:06 50.99720 6.97472 3852 ft 230 kts 174°
2026-04-25 08:07 50.98189 6.98238 3229 ft 234 kts 144°
2026-04-25 08:07 50.96953 6.99913 2758 ft 234 kts 135°
2026-04-25 08:07 50.95765 7.01667 2390 ft 230 kts 136°
2026-04-25 08:07 50.94615 7.03351 2084 ft 220 kts 136°
2026-04-25 08:08 50.93536 7.04925 1788 ft 206 kts 137°
2026-04-25 08:08 50.92525 7.06398 1673 ft 180 kts 137°
2026-04-25 08:08 50.91727 7.07536 2031 ft 150 kts 140°
2026-04-25 08:08 50.90907 7.08637 2355 ft 158 kts 136°
2026-04-25 08:09 50.90103 7.09847 2771 ft 159 kts 133°
2026-04-25 08:09 50.89354 7.11073 3239 ft 155 kts 130°
2026-04-25 08:09 50.88634 7.12388 3522 ft 164 kts 130°
2026-04-25 08:09 50.87773 7.13777 3531 ft 191 kts 133°
2026-04-25 08:10 50.86732 7.15343 3396 ft 221 kts 136°
2026-04-25 08:10 50.85606 7.16963 3006 ft 217 kts 137°
2026-04-25 08:10 50.84507 7.18507 2894 ft 207 kts 137°
2026-04-25 08:10 50.83417 7.20035 3310 ft 212 kts 137°
2026-04-25 08:11 50.82247 7.21675 3530 ft 236 kts 137°
2026-04-25 08:11 50.81196 7.23752 4091 ft 248 kts 111°
2026-04-25 08:11 50.80913 7.26393 4756 ft 252 kts 83°
2026-04-25 08:11 50.81420 7.28993 4956 ft 247 kts 56°
2026-04-25 08:12 50.82620 7.30855 5005 ft 242 kts 26°
2026-04-25 08:12 50.84176 7.31843 5009 ft 241 kts 17°
2026-04-25 08:12 50.85775 7.32646 5005 ft 241 kts 15°
2026-04-25 08:12 50.87373 7.33422 5006 ft 241 kts 15°
2026-04-25 08:13 50.88976 7.34195 5005 ft 241 kts 15°
2026-04-25 08:13 50.90577 7.34967 5004 ft 241 kts 15°
2026-04-25 08:13 50.92202 7.35595 5002 ft 240 kts
2026-04-25 08:14 50.95508 7.35681 5000 ft 239 kts 349°
2026-04-25 08:14 50.97039 7.34705 5001 ft 238 kts 323°
2026-04-25 08:14 50.98122 7.32743 5002 ft 240 kts 297°
2026-04-25 08:14 50.98517 7.30180 5003 ft 243 kts 270°
2026-04-25 08:15 50.98140 7.27567 5007 ft 246 kts 250°
2026-04-25 08:15 50.97633 7.24981 5006 ft 245 kts 265°
2026-04-25 08:15 50.97794 7.22339 5006 ft 241 kts 291°
2026-04-25 08:15 50.98581 7.20006 5009 ft 240 kts 303°
2026-04-25 08:16 50.99454 7.17748 5008 ft 240 kts 303°
2026-04-25 08:16 51.00327 7.15487 5007 ft 240 kts 302°
2026-04-25 08:16 51.01203 7.13224 4919 ft 241 kts 303°
2026-04-25 08:16 51.02062 7.10991 4744 ft 230 kts 302°
2026-04-25 08:17 51.02874 7.08868 4685 ft 223 kts 302°
2026-04-25 08:17 51.03673 7.06786 4633 ft 223 kts 303°
2026-04-25 08:17 51.04482 7.04682 4579 ft 223 kts 302°
2026-04-25 08:17 51.05288 7.02583 4474 ft 220 kts 302°
2026-04-25 08:18 51.06039 7.00526 4359 ft 211 kts 294°
2026-04-25 08:18 51.06371 6.98302 4227 ft 205 kts 273°
2026-04-25 08:18 51.06170 6.96106 4103 ft 197 kts 252°
2026-04-25 08:18 51.05481 6.94288 4097 ft 195 kts 227°
2026-04-25 08:19 51.04371 6.93069 4147 ft 193 kts 203°
2026-04-25 08:19 51.03064 6.92673 4056 ft 193 kts 178°
2026-04-25 08:19 51.01762 6.93177 3899 ft 195 kts 152°
2026-04-25 08:19 51.00678 6.94483 3673 ft 199 kts 136°
2026-04-25 08:20 50.99653 6.95990 3413 ft 202 kts 136°
2026-04-25 08:20 50.98635 6.97485 3141 ft 197 kts 136°
2026-04-25 08:20 50.97639 6.98939 2875 ft 190 kts 136°
2026-04-25 08:20 50.96711 7.00294 2623 ft 177 kts 136°
2026-04-25 08:21 50.95846 7.01555 2402 ft 159 kts 136°
2026-04-25 08:21 50.95071 7.02684 2196 ft 150 kts 136°
2026-04-25 08:21 50.94305 7.03802 2004 ft 150 kts 137°
2026-04-25 08:21 50.93536 7.04922 1793 ft 150 kts 137°
2026-04-25 08:22 50.92771 7.06035 1574 ft 149 kts 137°
2026-04-25 08:22 50.92016 7.07135 1373 ft 146 kts 137°
2026-04-25 08:22 50.91276 7.08210 1166 ft 145 kts 138°
2026-04-25 08:22 50.90526 7.09301 958 ft 147 kts 137°
2026-04-25 08:23 50.89771 7.10398 748 ft 148 kts 137°
2026-04-25 08:23 50.89025 7.11482 549 ft 144 kts 137°
2026-04-25 08:23 50.88297 7.12539 355 ft 140 kts 137°
2026-04-25 08:23 50.87597 7.13561 242 ft 127 kts 137°
2026-04-25 08:24 50.87034 7.14378 254 ft 93 kts 137°
2026-04-25 08:24 50.86650 7.14933 273 ft 61 kts 137°
2026-04-25 08:24 50.86369 7.15274 285 ft 46 kts 155°
2026-04-25 08:24 50.86157 7.15346 293 ft 24 kts 171°
2026-04-25 08:25 50.86056 7.15206 290 ft 23 kts 263°
2026-04-25 08:25 50.86137 7.15004 286 ft 24 kts 317°
2026-04-25 08:25 50.86266 7.14815 280 ft 28 kts 317°
2026-04-25 08:25 50.86419 7.14592 271 ft 32 kts 317°
2026-04-25 08:26 50.86593 7.14343 262 ft 35 kts 317°
2026-04-25 08:26 50.86775 7.14114 255 ft 22 kts 337°
2026-04-25 08:26 50.86899 7.13955 252 ft 25 kts 316°
2026-04-25 08:26 50.87040 7.13754 242 ft 28 kts 317°
2026-04-25 08:27 50.87190 7.13537 236 ft 31 kts 317°
2026-04-25 08:27 50.87354 7.13299 232 ft 33 kts 317°
2026-04-25 08:27 50.87506 7.13077 232 ft 19 kts 317°
2026-04-25 08:27 50.87606 7.12933 232 ft 20 kts 317°
2026-04-25 08:28 50.87716 7.12774 232 ft 22 kts 317°
2026-04-25 08:28 50.87839 7.12617 232 ft 23 kts 341°
2026-04-25 08:28 50.87993 7.12587 232 ft 22 kts 315°
2026-04-25 08:28 50.88032 7.12487 232 ft 8 kts 292°
2026-04-25 08:29 50.88017 7.12414 232 ft 7 kts 226°
2026-04-25 08:29 50.87987 7.12376 232 ft 0 kts 216°
2026-04-25 08:29 50.87984 7.12373 232 ft 1 kts 216°
2026-04-25 08:29 50.87982 7.12371 232 ft 0 kts 216°